Location: Ku?niki
(51.4449°N, 17.8974°E)
Time: 07:43:32
(UTC+00:00)

Cosmos 2082 Rocket - Pass Details

Date: 18 September 2020
Orbit: 834 x 852 km, 71.0° (Epoch: 21 October)

Event Time Altitude Azimuth Distance (km) Brightness Sun altitude
Rises 20:39:18 0° 329° (NNW) 3,394 6.5 -31.1°
Reaches altitude 10° 20:41:44 10° 329° (NNW) 2,456 5.5 -31.3°
Enters shadow 20:46:14 58° 322° (NW) 972 2.6 -31.7°
